CW3066 Weather Reports


time (UTC)temp
F
wind
direction
speed
knots
gust
knots
rain 1hr
in
rain 24hr
in
rain mn
in
humidity
%
barometer
mb
20260505124502 61 340 0.0 1.7 0.00 0.01 0.00 64 1005.5
20260505123107 60 341 0.0 0.9 0.00 0.01 0.00 67 1005.4
20260505121600 59 341 0.0 0.9 0.00 0.01 0.00 70 1005.1
20260505120100 57 341 0.0 0.0 0.00 0.01 0.00 73 1005.0
20260505114559 57 341 0.0 0.9 0.00 0.01 0.00 74 1005.0
20260505113101 56 341 0.0 0.0 0.00 0.01 0.00 75 1005.1
20260505111559 55 341 0.0 0.0 0.00 0.04 0.00 75 1005.0
20260505110104 55 341 0.0 0.0 0.00 0.04 0.00 73 1004.9
20260505101550 57 341 0.0 0.0 0.00 0.07 0.00 68 1004.2
20260505100052 58 341 0.0 0.0 0.00 0.07 0.00 66 1004.0
20260505094545 59 341 0.0 0.9 0.00 0.07 0.00 64 1003.8
20260505093043 59 341 0.0 0.0 0.00 0.07 0.00 63 1003.8
20260505091553 60 341 0.0 0.9 0.00 0.09 0.00 61 1003.7
20260505090052 61 341 0.0 0.9 0.00 0.09 0.00 61 1003.7
20260505084539 61 343 0.0 3.5 0.00 0.09 0.00 60 1003.5
20260505083043 61 340 0.0 2.6 0.00 0.09 0.00 60 1003.4
20260505081552 61 342 0.0 2.6 0.00 0.09 0.00 60 1003.3
20260505080045 62 342 0.0 2.6 0.00 0.09 0.00 59 1003.4
20260505074543 62 339 0.0 2.6 0.00 0.09 0.00 59 1003.3
20260505073033 62 345 0.0 2.6 0.00 0.09 0.00 59 1003.2
20260505071533 62 345 0.0 1.7 0.00 0.09 0.00 58 1003.3
20260505070032 62 342 0.0 1.7 0.00 0.09 0.00 58 1003.4
20260505064534 63 342 0.0 2.6 0.00 0.09 0.00 58 1003.4
20260505063038 62 341 0.0 1.7 0.00 0.09 0.00 59 1003.4
20260505061534 62 344 0.0 2.6 0.00 0.09 0.00 60 1003.5
20260505060029 62 342 0.0 0.9 0.00 0.09 0.00 60 1003.5
20260505054529 62 342 0.0 0.0 0.00 0.09 0.00 59 1003.6
20260505053025 63 342 0.0 0.9 0.00 0.09 0.00 58 1003.8
20260505051526 63 342 0.0 0.0 0.00 0.09 0.00 57 1003.8
20260505041518 64 342 0.0 0.9 0.00 0.09 0.09 56 1003.5
20260505040017 64 342 0.0 0.0 0.00 0.09 0.09 55 1003.5
20260505034519 65 342 0.0 0.9 0.00 0.09 0.09 55 1003.4
20260505033029 65 342 0.0 0.0 0.00 0.09 0.09 55 1003.2
20260505031516 65 342 0.0 0.0 0.00 0.09 0.09 54 1003.0
20260505030016 65 342 0.0 1.7 0.00 0.09 0.09 54 1002.9
20260505024533 65 342 0.0 0.0 0.00 0.09 0.09 55 1002.5
20260505023015 66 342 0.0 0.0 0.00 0.09 0.09 55 1002.5
20260505021531 66 342 0.0 0.9 0.00 0.09 0.09 54 1002.4
20260505020014 67 342 0.0 0.0 0.00 0.09 0.09 53 1002.1
20260505014516 67 342 0.0 0.0 0.00 0.09 0.09 52 1001.9
20260505013013 68 342 0.0 0.9 0.00 0.09 0.09 51 1002.0
20260505011513 69 342 0.0 2.6 0.00 0.09 0.09 49 1001.9
20260505010013 70 342 0.0 1.7 0.00 0.09 0.09 47 1001.9
20260505004521 71 342 0.0 1.7 0.00 0.09 0.09 46 1001.8
20260505003011 72 342 0.0 0.0 0.00 0.09 0.09 43 1002.0
20260505001511 73 342 0.0 1.7 0.00 0.09 0.09 41 1002.1
20260505000011 73 343 0.0 3.5 0.00 0.09 0.09 41 1002.4
20260504234508 74 348 0.0 2.6 0.00 0.09 0.09 39 1002.6
20260504233008 75 344 0.0 4.3 0.00 0.09 0.09 38 1002.9
20260504231507 76 344 0.9 6.1 0.00 0.09 0.09 37 1002.9
20260504230007 77 348 0.0 4.3 0.00 0.09 0.09 36 1003.1
20260504224508 78 348 1.7 7.0 0.00 0.09 0.09 34 1003.1
20260504223006 79 348 1.7 6.1 0.00 0.09 0.09 32 1003.2
20260504221504 79 351 0.0 2.6 0.00 0.09 0.09 34 1003.1
20260504220003 79 355 0.0 5.2 0.00 0.09 0.09 35 1003.2
20260504214502 78 350 0.9 3.5 0.00 0.09 0.09 34 1003.2
20260504213002 78 350 1.7 6.1 0.00 0.09 0.09 37 1003.2
20260504211600 78 348 0.0 10.4 0.00 0.09 0.09 36 1003.2
20260504210104 79 350 0.9 7.8 0.00 0.09 0.09 35 1003.3
20260504204616 79 349 0.0 9.6 0.00 0.09 0.09 36 1003.3
20260504203057 79 351 0.9 5.2 0.00 0.09 0.09 35 1003.7
20260504201603 79 350 0.0 7.8 0.00 0.09 0.09 37 1003.8
20260504200107 78 350 0.9 6.1 0.00 0.09 0.09 38 1004.2
20260504194553 77 349 0.9 5.2 0.00 0.09 0.09 39 1004.3
20260504193052 77 351 1.7 8.7 0.00 0.09 0.09 37 1004.6
20260504191549 77 355 1.7 7.0 0.00 0.09 0.09 40 1004.8
20260504190048 76 348 0.9 6.1 0.00 0.09 0.09 43 1004.8
20260504184555 76 355 0.0 6.1 0.00 0.09 0.09 43 1004.8
20260504183146 76 350 0.9 7.8 0.00 0.09 0.09 43 1004.8
20260504181546 75 350 0.9 6.1 0.00 0.09 0.09 46 1004.8
20260504180042 74 349 1.7 9.6 0.00 0.09 0.09 44 1004.8
20260504174540 74 349 0.9 6.1 0.00 0.09 0.09 45 1004.9
20260504173038 72 349 0.9 11.3 0.00 0.09 0.09 46 1004.9
20260504171536 72 351 0.9 6.1 0.00 0.09 0.09 48 1004.9